STARLINK-33818, 63502

Orbit data source: Space-Track

STARLINK-33818, 63502 is a payload satellite owned by SpaceX/Seattle (US) in LEO that was launched on Mon, 07 Apr 2025 UTC via an FALCON 9 launch vehicle from the Air Force Western Test Range (AFWTR). Payload-class satellites include a variety of spacecraft equipped with specific instruments for various scientific and technological missions. These include communications satellites like Starlink; space stations such as the ISS; scientific satellites like the Hubble; Earth observation satellites from companies like Planet Labs, Umbra, and HawkEye 360; GPS; miniature CubeSats for education and research; and military/defense satellites.

Loading next visibility...
Identifier
63502, 2025-071K
Orbit
LEO
Country
Flag of USUS
Related business
Manufacturer
SpaceX/Seattle
Mission
Operational Commercial Communications
Bus & Motor
STARLINK V2MO, Unknown motor
Mass
575 kg wet, ~530 kg dry
Launch date (UTC)
2025-04-07 (5 months ago)
Launch vehicle
FALCON 9
Launch site
Air Force Western Test Range (AFWTR)
Object type
Payload
Rocket body
Debris
Shape & HBR
Box + 1 Pan, 14.5 m
Radar Cross Section
41.120 m², Large (>1 m²)

Expand to show TLE details & history
Last TLE update: 22 hours ago

TLE from 22 hours ago
0 STARLINK-33818
1 63502U 25071K   25259.37575452  .00044340  00000-0  14997-2 0  9999
2 63502  53.1577 229.4503 0001603  86.7086 273.4098 15.30211060 26084
Epoch: 2025-09-16T09:01Z
TLE epoch observation values (Epoch: 2025-09-16T09:01:05.19Z)
Latitude
-0.00003°
Longitude
98.6117°
Altitude
476.016 km
Speed
7.629 km/s
True Right ascension
15h 17m 48s
True Declination
0° 00' 00"
Sunlit
Object was in daylight at epoch
Visualization orbit readout
Latitude
Unknown
Longitude
Unknown
Altitude
Unknown
Speed
Unknown
Apparent Right ascension
Unknown
Apparent Declination
Unknown
Sunlit
N/A
Visualization observer readout
Local Sidereal Time
23:31:56
Azimuth
Unknown
Elevation
Unknown
Doppler factor
Unknown
Orbital elements
Apogee altitude
476.537 km
Perigee altitude
474.34 km
Semi-major axis
6,853.576 km
Eccentricity
0.00016
Inclination
53.1577°
RAAN
229.4503°
Arg. of periapsis
86.7086°
True anomaly
273.39146°
Mean anomaly
273.4098°
Eccentric anomaly
273.40063°
Mean motion
3.82532 °/min
Orbital period
94.11 mins
BSTAR
0.0014997
Loading maneuver chart data...
Computing Atmospheric mass density...
Loading historical data...
Loading historical data...
Loading historical data...
Loading historical data...
Loading historical data...
Loading historical data...
Loading historical data...

Documentation

Showing up to 5 results
|